Regional Weather Roundup
Issued by NWS Wilmington, NC

Home | Current Version | Previous Version | Text Only | Print | Product List | Glossary On
Versions: 1 2 3 4 5 6 7 8 9 10 11 12 13 14 15 16 17 18 19 20 21 22 23 24 25 26 27 28 29 30 31 32 33 34 35 36 37 38 39 40 41 42 43 44 45 46 47 48 49 50
000
ASUS42 KILM 251113
RWRILM
RWRILM
REGIONAL HOURLY WEATHER ROUNDUP
NATIONAL WEATHER SERVICE WILMINGTON NC
700 AM EDT MON MAY 25 2015

NOTE: "FAIR" INDICATES FEW OR NO CLOUDS BELOW 12,000 FEET WITH NO
SIGNIFICANT WEATHER AND/OR OBSTRUCTIONS TO VISIBILITY.

...............WFO WILMINGTON COUNTY WARNING AREA...............

......COASTAL NC AND SC COUNTIES......

CITY           SKY/WX    TMP DP  RH WIND       PRES   REMARKS
WILMINGTON     CLEAR     61  58  90 CALM      30.34R
N MYRTLE BEACH PTCLDY    72  58  61 SE7       30.32R
MYRTLE BEACH   PTCLDY    70  57  64 SE13      30.33S

......INLAND NC AND SC COUNTIES.......

CITY           SKY/WX    TMP DP  RH WIND       PRES   REMARKS
LUMBERTON      CLEAR     58  56  93 CALM      30.33R
ELIZABETHTOWN  PTCLDY    58  58 100 CALM      30.34R
WHITEVILLE     PTCLDY    56  55  94 CALM      30.33R
FLORENCE       PTCLDY    58  55  90 CALM      30.32R
DARLINGTON     CLEAR     57  52  82 N3        30.34R

....................REST OF NORTH CAROLINA......................

.........EASTERN NC.........

CITY           SKY/WX    TMP DP  RH WIND       PRES   REMARKS
CAPE HATTERAS  SUNNY     69  57  65 S7        30.35R
JACKSONVILLE   SUNNY     57  52  82 CALM      30.35R
MOREHEAD CITY  SUNNY     67  60  78 SE3       30.35R
KENANSVILLE    MOSUNNY   56  55  95 CALM      30.36R
NEW BERN       SUNNY     61  56  83 CALM      30.36R
ELIZABETH CITY SUNNY     63  62  97 CALM      30.35R

.........CENTRAL NC.........

CITY           SKY/WX    TMP DP  RH WIND       PRES   REMARKS
RALEIGH DURHAM PTCLDY    60  57  89 CALM      30.35R
ROCKY MOUNT    SUNNY     60  58  92 CALM      30.35R FOG
ROANOKE RAPIDS NOT AVBL
FAYETTEVILLE   PTCLDY    61  58  90 CALM      30.34R
HOFFMAN        CLEAR     57  56  94 N2        30.37R

.........WESTERN NC.........

CITY           SKY/WX    TMP DP  RH WIND       PRES   REMARKS
CHARLOTTE      PTCLDY    60  54  80 CALM      30.34R
GREENSBORO     PTCLDY    59  56  89 SW3       30.33R
HICKORY        NOT AVBL
BOONE          NOT AVBL
ASHEVILLE      NOT AVBL

.....................REST OF SOUTH CAROLINA.....................

.........EASTERN SC.........

CITY           SKY/WX    TMP DP  RH WIND       PRES   REMARKS
CHARLESTON     MOCLDY    68  61  78 NE5       30.29R
BEAUFORT MCAS  MOCLDY    74  65  73 E6        30.27R
HILTON HEAD    PTCLDY    75  68  78 NE6       30.27R

.........CENTRAL SC.........

CITY           SKY/WX    TMP DP  RH WIND       PRES   REMARKS
COLUMBIA       MOCLDY    60  55  83 CALM      30.31R
ORANGEBURG     PTCLDY    62  57  83 CALM      30.31R
SUMTER SHAW    CLEAR     58  55  91 NE3       30.30R

.........WESTERN SC.........

CITY           SKY/WX    TMP DP  RH WIND       PRES   REMARKS
GREENVILLE     NOT AVBL
ROCK HILL      CLEAR     56  55  97 CALM      30.34R
ANDERSON       CLEAR     62  58  86 N5        30.32R
CLEMSON        NOT AVBL
GREENWOOD      CLEAR     56  54  93 CALM      30.33R


...................COASTAL AND OFFSHORE REPORTS..................

................LOCAL PIERS AND NC RESERVE................


STATION/POSITION TIME  SKY/WX   TEMP    WIND        PRES    VSBY
                                AIR SEA DIR/SP/G
                 (UTC)          (F)     (DEG/KT/KT) (MB)    (MI)
JOHNY MRCER PIER 1000            73 77  130/  7/  9 1026.3R
NC RESRV MASNBRO NOT AVBL
OCEAN CREST PIER 1102            73 75   90/ 10/ 11 1026.2R
SPRINGMAID  PIER 1000            72 75  110/ 11/ 13 1026.4R


................COASTAL AND OFFSHORE BUOYS................


STATION/POSITION TIME  SKY/WX   TEMP    WIND        PRES    VSBY
                                AIR SEA DIR/SP/G
                 (UTC)          (F)     (DEG/KT/KT) (MB)    (MI)
DIMNDSHOAL 41025 1050            73 77  150/  8/ 10 1028.0R
WVE H/P(F/S)=  2/ 8 WND WVE H/P(F/S)=  2/ 4 SWL H/P/D(F/S/D)=  2/ 70/ 8

CAPE LOOKOUT     1100            72     120/  7/  8 1027.4R
ONSLOW BAY 41036 NOT AVBL
5 WRITEBCH 41038 NOT AVBL
MASONBORO  41110 1019               76                N/A
WVE H/P(F/S)=  3/ 6 WND WVE H/P(F/S)=  3/ 6

WILM HARBR 41108 1011               75                N/A
WVE H/P(F/S)=  3/ 7 WND WVE H/P(F/S)=  3/ 7

27WRITEBCH 41037 1000            70 76  120/  8/ 10   N/A
FRYING PAN 41013 1050            74 74  130/  8/ 10 1027.6R
WVE H/P(F/S)=  4/ 7 WND WVE H/P(F/S)=  2/ 4 SWL H/P/D(F/S/D)=  3/140/ 7

SUNST NRSH 41024 1008            72     140/ 10/ 12 1026.4R
CAPRS NRSH 41029 1008            74     110/ 12/ 16 1025.7R
EDISTO     41004 1050            75 75  100/ 10/ 12 1025.2R
WVE H/P(F/S)=  5/ 7 WND WVE H/P(F/S)=  3/ 5 SWL H/P/D(F/S/D)=  5/ 7



..........OFFSHORE BUOYS BEYOND 100 NM OFFSHORE...........
.....IN A TRIANGLE---HAT TO BERMUDA TO BAHAMAS TO HAT.....


STATION/POSITION TIME  SKY/WX   TEMP    WIND        PRES    VSBY
                                AIR SEA DIR/SP/G
                 (UTC)          (F)     (DEG/KT/KT) (MB)    (MI)
150E HAT   41001 NOT AVBL
W BERMUDA  41048 1050            71 74   70/ 14/ 17 1026.8R
WVE H/P(F/S)=  5/ 6 WND WVE H/P(F/S)=  5/ 6 SWL H/P/D(F/S/D)=  2/ 40/ 8

ATLANTIC S 41049 1050            75 78   20/ 10/ 10 1022.2R
WVE H/P(F/S)=  3/ 8 WND WVE H/P(F/S)=  2/ 4 SWL H/P/D(F/S/D)=  3/100/ 8

E BAHAMAS  41046 1050            80 81   70/ 12/ 14 1020.5R
WVE H/P(F/S)=  4/ 8 WND WVE H/P(F/S)=  3/ 6 SWL H/P/D(F/S/D)=  3/ 30/ 8

NE BAHAMAS 41047 1050            77 78   60/ 10/ 12 1022.9R
WVE H/P(F/S)=  4/ 7 WND WVE H/P(F/S)=  2/ 4 SWL H/P/D(F/S/D)=  3/ 40/ 7

120E CANVRL41010 1020            78 79   70/ 12/ 14 1023.0R

END


USA.gov is the U.S. government's official web portal to all federal, state and local government web resources and services.